Location: Unspecified
(51.5147°N, 7.4673°E)
Time: 03:10:49
(UTC+01:00)

A-11 Canister half - Pass Details

Date: 25 February 2026
Orbit: 1513 x 1687 km, 47.2° (Epoch: 13 March)

Event Time Altitude Azimuth Distance (km) Brightness Sun altitude
Rises 03:26:44 0° 286° (WNW) 4,883 - -36.1°
Reaches altitude 10° 03:31:44 10° 265° (W) 3,858 - -35.4°
Maximum altitude 03:36:34 15° 235° (SW) 3,435 - -34.8°
Drops below altitude 10° 03:41:20 10° 204° (SSW) 3,779 - -34.2°
Sets 03:46:11 0° 183° (S) 4,723 - -33.6°
